Regional Weather Roundup
Issued by NWS

Home | Current Version | Previous Version | Text Only | Print | Product List | Glossary On
Versions: 1 2 3 4 5 6 7 8 9 10 11 12 13 14 15 16 17 18 19 20 21 22 23 24 25 26 27 28 29 30 31 32 33 34 35 36 37 38 39 40 41 42 43 44 45 46 47 48 49 50
000
ASUS43 KDTX 172310
RWRMI
MICHIGAN HOURLY REGIONAL WEATHER ROUNDUP
NATIONAL WEATHER SERVICE DETROIT/PONTIAC MI
700 PM EDT WED SEP 17 2014

NOTE: "FAIR" INDICATES FEW OR NO CLOUDS BELOW 12,000 FEET WITH NO
SIGNIFICANT WEATHER AND/OR OBSTRUCTION TO VISIBILITY.

MIZ047>049-052>055-059>063-066>070-074>076-081>083-180000-
SOUTHEAST LOWER MICHIGAN

CITY           SKY/WX    TMP DP  RH WIND       PRES   REMARKS
ADRIAN         PTCLDY    64  45  49 N3        29.99R
ALMA           CLEAR     63  49  59 W3        29.98S
ANN ARBOR      CLOUDY    65  41  41 NW7       29.98S
BAD AXE        CLEAR     62  48  61 SW3       29.97R
DETROIT CITY   CLEAR     67  42  40 NW5       29.98R
DETROIT        PTCLDY    63  44  50 W3        29.98S
FLINT          CLOUDY    64  44  48 W5        29.98S
GROSSE ILE     CLEAR     66  45  45 CALM      29.97S
HILLSDALE      PTCLDY    64  45  50 NW3       29.99S
HOWELL         MOCLDY    61  44  54 CALM      29.98S

CITY           SKY/WX    TMP DP  RH WIND       PRES   REMARKS
JACKSON        PTCLDY    62  46  55 CALM      29.99S
LAMBERTVILLE   CLEAR     64  45  48 CALM      29.98S
LANSING        CLEAR     63  48  58 W7        29.99S
LAPEER         NOT AVBL
MASON          CLEAR     63  46  52 W3        29.98S
MT. CLEMENS    PTCLDY    63  42  46 W5        29.96S
PONTIAC        PTCLDY    63  42  46 NW6       29.98S
PORT HOPE        N/A     63  46  54 W3        29.95R
PORT HURON     MOCLDY    61  48  63 CALM      29.98R
TRI CITIES     PTCLDY    64  47  53 W5        29.97S
YPSILANTI      MOCLDY    66  45  46 NW6       29.99R
$$
MIZ043>046-050>051-056>058-064>065-071>073-077>080-180000-
SOUTHWEST LOWER MICHIGAN

CITY           SKY/WX    TMP DP  RH WIND       PRES   REMARKS
BATTLE CREEK   PTCLDY    64  46  52 NW10      29.99S
BENTON HARBOR  CLEAR     61  44  53 NW3       30.00S
BIG RAPIDS     CLEAR     62  47  58 NW6       29.98R
COLDWATER      CLEAR     64  48  56 CALM      29.99R
HOLLAND        CLEAR     63  46  54 W5        30.00F
GRAND RAPIDS   PTCLDY    63  45  51 W8        29.99F
KALAMAZOO      PTCLDY    63  45  51 NW10      30.00S
MARSHALL       MOCLDY    62  46  55 W7        29.98S
MUSKEGON       PTCLDY    62  46  55 SW9       30.00S
$$
MIZ016>042-180000-
NORTHERN LOWER MICHIGAN

CITY           SKY/WX    TMP DP  RH WIND       PRES   REMARKS
ALPENA         CLOUDY    64  46  52 W3        29.94R
BEAVER ISLAND  CLOUDY    55  47  77 N8        29.99R
BELLAIRE       PTCLDY    63  46  54 CALM      29.96S
CADILLAC       CLEAR     61  47  59 W5        29.98R
CHARLEVOIX     CLOUDY    62  50  66 W8        29.99R
FRANKFORT      CLEAR     62  50  65 SW3       29.97S
GAYLORD        CLEAR     60  42  51 W7        29.96S
GRAYLING       CLEAR     63  42  47 W6        29.97R
HARBOR SPRINGS CLOUDY    62  50  66 W8        29.96S
HOUGHTON LAKE  CLEAR     62  46  55 W8        29.97R
MANISTEE       CLEAR     63  46  55 SW5       29.98S
OSCODA         CLEAR     65  47  53 W5        29.93S
PELLSTON       CLOUDY    58  49  72 N14       29.97R
TRAVERSE CITY  PTCLDY    65  45  48 W8        29.95S
$$
MIZ007>008-015-180000-
EASTERN UPPER MICHIGAN

CITY           SKY/WX    TMP DP  RH WIND       PRES   REMARKS
KINROSS        CLOUDY    50  46  87 N14G20    29.97R
MACKINAC ISLAN CLOUDY    53  46  76 N12       29.97R
NEWBERRY       CLOUDY    46  41  85 N9G17     30.01R
S. S. MARIE    CLOUDY    50  44  80 N8        29.98R
$$
MIZ004>006-011>014-085-180000-
CENTRAL UPPER MICHIGAN

CITY           SKY/WX    TMP DP  RH WIND       PRES   REMARKS
MANISTIQUE     CLOUDY    50  44  80 N12       30.00R
ESCANABA       CLOUDY    50  43  76 N10G20    30.00R
MENOMINEE      MOCLDY    70  46  43 N5        29.93R
SAWYER-GWINN   CLOUDY    43  39  87 N16       30.04R
$$
MIZ001>003-009>011-084-180000-
WESTERN UPPER MICHIGAN

CITY           SKY/WX    TMP DP  RH WIND       PRES   REMARKS
IRON MOUNTAIN  PTCLDY    53  45  74 NE7       29.99R
HOUGHTON       PTCLDY    45  35  68 NE8       30.08R
COPPER HARBOR    N/A     43  36  76 E12       30.10R
IRONWOOD       CLOUDY    50  45  81 NE7       30.02R
$$

ABBREVIATIONS USED IN REMARKS
   TC - TEMPERATURE IN CELSIUS
  WCI - WIND CHILL INDEX
   HX - HEAT INDEX
  VSB - VISIBILITY



USA.gov is the U.S. government's official web portal to all federal, state and local government web resources and services.